Retour au catalogue

STARLINK-11357

ActifCommunicationsVLEO
NORAD 61541·PAYLOAD·🇺🇸 United States

Lancé Oct 15, 2024 depuis Vandenberg Space Force Base

Loading…

Prochains Passages (prochaines 24 heures)

TLE

FraisSource: CelesTrak SupGP

Époque: Sep 14, 2026, 20:54 UTC

1 61541C 24184K   26257.87131944  .00065497  00000+0  53944-3 0  2570
2 61541  53.1569  23.9778 0001033  75.7801  16.9612 15.69680416    11

Suivez STARLINK-11357 en temps réel avec AllMySat

Download on the App Store